Temperature
10 10 10 9 9 8 8 7 7 6 6 5 5 4 3 2 2 2 1 1 1 0 -0 -1 -2 -4 -5 -6 -6 -7 -7 -8 -9 -8 -8 -8 -8 -8 -8 -8 -8 -8 -8
10 9 9 9 8 8 7 7 6 6 5 4 4 3 2 2 1 1 1 0 -0 -1 -2 -3 -4 -5 -6 -6 -7 -7 -8 -8 -9 -9 -9 -9 -8 -8 -8 -8 -9 -9 -9
9 9 9 8 7 7 6 6 5 5 4 3 3 2 2 1 1 1 0 -0 -1 -2 -3 -4 -5 -6 -6 -7 -8 -8 -8 -9 -9 -9 -9 -9 -9 -8 -9 -9 -9 -9 -9
9 8 8 7 7 6 6 5 5 4 3 3 2 2 1 1 0 -0 -0 -1 -2 -3 -4 -5 -6 -7 -7 -8 -8 -9 -9 -9 -9 -9 -9 -9 -9 -9 -9 -9 -10 -10 -10
8 7 7 6 6 5 5 4 4 3 2 2 1 1 1 0 -0 -1 -2 -3 -3 -4 -5 -6 -7 -7 -8 -9 -9 -9 -9 -9 -9 -9 -9 -9 -9 -9 -10 -10 -10 -10 -10
7 7 6 6 5 5 4 4 3 2 2 1 1 0 0 -0 -1 -2 -3 -4 -5 -6 -6 -7 -7 -8 -8 -9 -9 -9 -9 -9 -9 -9 -9 -10 -10 -10 -10 -10 -10 -10 -10
6 6 5 5 4 4 3 3 2 1 1 0 0 -0 -1 -1 -2 -2 -3 -5 -6 -6 -7 -8 -8 -8 -9 -9 -9 -9 -9 -9 -9 -10 -10 -10 -10 -10 -10 -10 -10 -11 -11
6 5 5 4 3 3 2 2 1 1 0 0 -0 -1 -1 -2 -2 -3 -5 -6 -7 -7 -8 -8 -9 -9 -9 -9 -9 -9 -9 -9 -10 -10 -10 -10 -10 -10 -10 -11 -11 -11 -11
5 4 4 3 3 2 1 1 0 0 -0 -1 -1 -2 -2 -3 -3 -4 -6 -7 -7 -8 -8 -9 -9 -10 -10 -9 -9 -9 -10 -9 -10 -10 -10 -10 -10 -10 -10 -11 -11 -12 -12
4 3 3 2 2 1 0 0 -0 -0 -1 -1 -2 -2 -3 -4 -4 -5 -7 -8 -8 -8 -9 -9 -10 -10 -10 -9 -9 -10 -10 -10 -10 -10 -10 -9 -8 -9 -9 -10 -11 -12 -12
3 2 2 1 1 0 0 -0 -1 -1 -1 -2 -2 -3 -3 -4 -5 -6 -7 -9 -9 -9 -9 -10 -10 -10 -10 -10 -10 -10 -10 -10 -10 -10 -9 -9 -9 -9 -9 -9 -9 -11 -12
2 2 1 1 0 -0 -0 -1 -1 -2 -2 -3 -3 -3 -4 -5 -6 -7 -9 -9 -9 -9 -10 -10 -10 -10 -10 -10 -10 -10 -11 -11 -10 -10 -10 -10 -9 -9 -8 -8 -8 -8 -9
1 1 0 0 -0 -1 -1 -1 -2 -2 -3 -3 -4 -5 -5 -6 -7 -8 -9 -9 -10 -10 -10 -10 -10 -10 -10 -10 -9 -10 -10 -10 -11 -11 -11 -10 -9 -8 -8 -8 -8 -8 -7
1 0 -0 -1 -1 -1 -2 -2 -2 -3 -4 -5 -6 -7 -7 -7 -8 -9 -10 -10 -10 -10 -10 -10 -10 -10 -10 -10 -10 -10 -10 -10 -11 -11 -10 -9 -9 -8 -8 -8 -8 -8 -8
0 -0 -1 -1 -2 -2 -2 -3 -3 -4 -5 -7 -7 -8 -9 -9 -9 -10 -10 -10 -10 -10 -11 -10 -10 -10 -10 -10 -10 -10 -10 -10 -10 -10 -10 -9 -9 -8 -8 -8 -8 -8 -9
-1 -1 -1 -2 -2 -3 -3 -3 -4 -5 -6 -7 -7 -8 -9 -9 -10 -10 -10 -10 -10 -11 -11 -10 -10 -10 -11 -11 -11 -10 -10 -10 -10 -9 -9 -9 -9 -9 -8 -8 -8 -8 -9
-1 -2 -2 -2 -3 -3 -4 -4 -5 -5 -6 -6 -7 -8 -8 -8 -9 -10 -11 -11 -10 -10 -11 -10 -11 -11 -11 -11 -11 -10 -10 -9 -9 -9 -9 -8 -9 -8 -8 -8 -8 -8 -8
-2 -2 -3 -3 -4 -4 -5 -6 -6 -7 -7 -7 -7 -8 -8 -9 -9 -10 -11 -11 -10 -10 -11 -11 -11 -11 -11 -11 -11 -10 -10 -9 -9 -8 -8 -8 -8 -8 -8 -8 -8 -8 -9
-3 -3 -4 -4 -5 -5 -6 -6 -7 -8 -8 -8 -8 -9 -9 -9 -10 -10 -11 -11 -11 -11 -11 -11 -11 -11 -11 -11 -10 -10 -9 -9 -8 -8 -8 -8 -8 -8 -8 -8 -8 -8 -8
-3 -4 -4 -5 -5 -6 -7 -7 -8 -8 -9 -9 -9 -9 -10 -11 -11 -10 -11 -11 -11 -11 -11 -11 -11 -11 -10 -10 -10 -9 -9 -8 -8 -8 -8 -8 -8 -8 -8 -8 -8 -8 -8
-4 -5 -5 -6 -6 -7 -7 -8 -9 -9 -9 -10 -10 -10 -11 -12 -11 -11 -11 -11 -11 -11 -11 -11 -10 -10 -10 -10 -9 -9 -8 -8 -8 -8 -8 -8 -8 -8 -8 -8 -8 -8 -8
-5 -5 -6 -6 -7 -8 -8 -9 -9 -10 -10 -10 -10 -10 -11 -11 -11 -11 -11 -11 -11 -11 -11 -11 -10 -10 -9 -9 -9 -8 -8 -8 -8 -8 -7 -7 -7 -7 -7 -7 -7 -7 -7
-5 -6 -6 -7 -8 -8 -9 -9 -10 -10 -10 -10 -11 -11 -11 -11 -11 -11 -11 -11 -11 -11 -10 -10 -10 -9 -9 -8 -8 -8 -8 -8 -7 -7 -7 -7 -7 -7 -7 -7 -7 -7 -7
-6 -7 -7 -8 -8 -9 -9 -10 -10 -10 -11 -11 -11 -11 -11 -12 -11 -11 -11 -11 -11 -10 -10 -10 -9 -9 -8 -8 -8 -8 -7 -7 -7 -7 -7 -7 -7 -7 -7 -7 -7 -7 -7
-7 -7 -8 -9 -9 -10 -10 -10 -10 -11 -11 -11 -11 -12 -12 -11 -11 -11 -11 -11 -10 -10 -9 -9 -9 -8 -8 -8 -8 -7 -7 -7 -7 -7 -7 -7 -7 -7 -7 -7 -7 -7 -7
-7 -8 -9 -9 -9 -10 -10 -10 -11 -11 -11 -11 -12 -12 -12 -12 -11 -11 -11 -10 -10 -9 -9 -8 -8 -8 -8 -7 -7 -7 -7 -7 -7 -7 -7 -7 -7 -7 -7 -7 -7 -7 -7
Wind_Speed
13 13 14 12 12 11 10 9 8 7 7 6 5 4 3 3 3 3 4 4 5 6 6 6 7 8 6 6 6 7 9 10 17 19 15 13 12 12 14 15 19 17 20
13 14 14 12 12 11 10 8 8 8 6 6 4 4 3 3 3 3 5 6 6 7 7 7 8 8 8 7 8 9 10 10 15 21 19 16 16 14 15 13 15 16 12
14 15 13 12 11 10 9 8 8 7 6 5 4 3 3 4 4 4 5 6 7 7 7 7 8 8 9 9 10 10 10 12 11 16 19 17 15 14 14 15 14 12 15
14 14 13 11 10 9 8 8 7 7 6 4 3 3 3 4 5 6 6 6 6 6 6 7 8 9 11 11 11 10 10 12 12 15 16 16 15 13 12 15 16 12 14
14 13 11 10 9 9 8 8 7 6 5 3 3 3 4 4 5 7 6 5 5 6 7 8 9 13 17 15 14 12 12 13 14 15 16 17 16 15 16 15 18 18 15
13 12 11 10 9 8 8 7 6 5 4 3 3 3 4 4 10 14 11 5 5 6 8 9 10 12 17 22 26 25 23 18 16 15 15 17 19 17 17 18 19 20 18
12 11 10 10 9 8 7 7 5 4 3 3 3 4 5 8 13 15 16 9 6 7 9 10 11 13 18 13 20 25 21 23 24 17 17 18 19 19 20 21 19 19 20
12 11 9 9 9 7 7 6 4 2 2 2 3 5 6 8 14 16 17 8 7 8 9 10 11 12 14 18 17 15 12 13 18 15 13 16 17 16 17 18 19 19 19
11 10 9 9 8 7 6 4 3 2 2 3 4 5 6 8 14 16 17 6 7 9 9 10 12 11 22 27 18 15 15 14 19 23 24 24 28 27 22 15 15 15 18
10 9 8 8 8 7 5 3 2 1 2 4 5 5 6 7 13 17 18 6 7 8 7 8 16 20 25 27 16 12 15 16 16 16 17 20 17 19 22 14 13 14 15
11 10 9 8 7 6 4 3 2 2 3 4 6 6 7 8 12 17 19 9 8 9 9 8 9 24 27 27 22 12 18 20 13 14 14 14 13 11 12 12 12 13 14
11 10 9 7 6 5 5 3 2 3 4 5 5 7 6 7 11 15 20 19 18 11 11 9 12 26 26 25 19 20 25 20 11 12 13 13 13 13 13 14 15 15 14
11 9 8 7 6 4 4 3 2 3 3 5 5 6 7 6 8 18 19 21 22 13 11 20 24 25 22 16 19 23 18 11 11 12 13 13 11 12 13 13 13 13 15
10 8 6 6 5 4 3 2 2 3 4 5 6 6 7 7 7 8 8 10 15 14 12 15 21 20 17 17 16 14 11 11 12 11 13 13 12 11 12 11 13 14 14
9 7 6 5 4 3 3 2 3 4 5 7 5 5 7 7 11 20 15 11 11 12 14 7 8 10 10 10 11 10 10 11 12 11 12 13 13 13 13 11 10 12 12
7 5 4 3 2 2 3 4 6 7 11 13 13 13 11 15 21 21 21 21 22 21 14 9 10 10 11 12 13 13 12 12 12 12 12 12 12 13 13 12 11 11 12
7 5 3 3 3 3 3 4 6 7 11 13 15 17 17 19 20 21 21 21 19 17 9 8 10 10 11 11 11 12 13 13 12 11 12 12 12 12 12 12 12 12 12
6 5 4 2 2 3 4 4 5 6 8 8 12 17 19 20 20 20 20 17 11 10 7 9 10 11 11 11 12 12 13 13 12 11 12 12 11 11 12 12 11 12 13
5 3 3 2 2 3 4 4 5 6 7 8 8 10 16 18 18 18 16 8 9 10 9 10 10 11 11 11 12 12 12 13 13 12 12 12 11 11 11 11 12 16 14
4 5 4 3 3 4 4 4 5 6 7 8 9 9 10 11 8 9 9 8 8 10 11 11 11 11 11 11 12 12 12 12 13 12 12 12 11 11 12 13 12 11 10
3 4 5 4 3 4 4 5 5 6 7 8 8 12 18 10 8 9 9 9 9 10 11 12 12 12 11 11 11 12 13 13 12 12 12 12 12 12 11 11 11 10 9
3 2 3 3 4 4 5 5 6 7 9 10 9 11 17 10 8 9 9 10 9 9 10 11 11 11 11 11 12 12 13 14 13 12 12 12 12 12 11 10 9 8 7
3 3 3 3 4 7 7 6 6 7 8 9 10 10 10 9 10 10 10 10 10 11 11 11 12 12 12 11 12 12 13 14 13 14 14 14 12 10 9 8 9 7 6
3 3 3 4 4 4 5 6 7 8 9 9 10 10 10 10 11 11 11 11 11 12 11 11 12 16 19 16 12 12 12 14 15 14 15 12 10 8 8 7 6 6 5
3 3 4 4 4 5 6 7 7 8 9 9 9 10 10 11 11 11 11 11 12 13 14 14 12 13 17 21 19 16 21 26 22 12 8 7 8 8 7 6 5 4 4
3 4 4 4 4 5 6 7 7 8 8 9 9 9 10 11 11 11 11 11 12 13 14 13 14 17 21 18 19 23 26 25 19 15 8 6 7 6 6 4 5 4 4
Wind_Direction
125 121 119 116 114 111 110 110 109 104 101 95 89 75 51 21 352 336 316 309 309 301 297 287 278 273 269 265 261 263 266 271 287 297 298 298 291 289 292 285 283 281 283
124 120 118 117 114 111 110 110 108 104 98 95 88 70 35 2 340 328 314 313 303 299 297 295 289 292 279 274 271 270 273 271 281 295 302 304 299 296 293 289 296 294 286
123 120 119 117 116 115 114 112 108 105 98 88 80 57 14 343 326 310 298 297 295 294 296 296 292 289 285 281 278 279 279 284 282 291 298 300 299 299 300 299 294 288 289
123 122 122 121 120 119 116 112 109 107 100 88 71 38 356 326 307 297 295 294 295 298 296 290 287 284 283 284 287 281 289 294 292 292 294 299 301 302 304 307 305 296 294
123 122 122 120 117 115 113 110 105 100 95 82 54 15 343 316 304 307 299 293 294 295 293 287 287 298 303 304 305 305 303 299 298 299 302 305 307 310 309 308 304 304 295
124 124 125 121 117 115 113 109 103 94 81 56 26 351 333 324 321 325 325 298 287 292 297 294 292 296 301 311 311 307 304 303 305 305 306 305 304 305 305 305 305 304 303
124 126 126 122 117 115 113 105 98 91 65 25 351 335 319 312 325 326 323 322 295 290 291 295 303 306 311 298 298 303 304 305 305 303 300 299 300 303 304 305 304 302 300
125 125 124 120 116 112 105 99 92 83 40 356 328 322 316 318 330 326 322 324 292 284 283 286 291 294 299 305 305 309 302 299 299 299 290 292 297 300 301 302 301 301 297
126 125 123 120 117 112 104 97 88 57 9 330 314 320 318 316 327 324 324 301 289 288 287 290 301 300 305 312 317 311 308 306 308 306 305 305 306 307 308 307 306 306 305
127 121 115 114 115 112 108 99 77 43 336 323 319 316 310 304 317 325 325 300 296 298 293 288 307 313 313 319 319 314 314 311 312 314 312 308 303 301 307 306 303 301 302
116 110 105 106 110 110 102 89 63 17 346 335 320 315 306 306 320 325 324 322 310 311 313 308 305 315 319 322 323 317 309 315 322 317 311 307 306 306 307 305 300 295 295
109 106 103 100 100 101 93 76 50 15 349 332 321 315 299 298 315 320 324 323 323 317 314 310 311 319 324 325 324 316 319 326 320 312 310 310 311 310 309 306 300 293 284
106 105 104 97 84 82 76 47 17 0 338 317 308 302 303 299 307 320 322 323 324 322 311 315 320 324 327 324 318 321 327 322 313 312 311 309 306 301 304 306 305 300 294
109 106 101 95 81 60 43 16 355 329 314 303 299 301 304 305 303 300 298 312 321 319 312 316 324 324 324 320 320 320 317 312 314 311 309 306 306 306 309 310 313 317 315
105 101 93 83 75 40 10 331 317 279 279 306 297 297 312 310 313 323 328 322 323 319 325 326 324 323 324 322 319 317 317 317 316 312 309 310 311 312 312 314 311 315 314
105 95 86 75 52 25 351 328 321 320 323 325 325 324 319 318 322 327 328 329 329 330 333 326 321 320 319 319 319 318 317 315 314 312 309 307 309 310 311 313 313 314 315
101 98 81 58 30 359 340 327 322 324 325 328 329 330 328 327 328 330 331 332 332 334 330 318 316 316 314 313 312 311 311 310 309 307 306 306 307 307 309 311 314 316 315
87 77 69 41 3 335 320 310 305 311 318 318 324 327 329 329 329 331 334 337 330 330 319 315 313 312 310 309 309 309 308 309 309 308 306 305 305 306 307 308 311 313 315
77 60 48 16 344 323 313 308 305 305 309 311 314 322 329 327 327 331 336 330 320 320 319 315 311 308 307 306 305 305 305 305 304 305 304 303 304 305 304 305 308 312 316
55 36 34 13 344 329 319 314 314 314 314 315 317 321 322 321 326 327 326 317 318 317 316 312 309 305 305 304 304 304 304 303 304 303 302 302 302 302 302 303 306 310 312
51 16 12 6 340 324 316 318 320 319 317 315 314 317 324 327 322 316 318 319 317 315 313 309 306 303 302 302 302 301 301 301 300 300 300 301 302 302 301 300 302 305 309
46 15 358 346 335 325 328 330 322 318 317 315 315 317 324 325 315 316 317 315 312 308 307 304 301 299 298 299 299 300 299 298 298 298 299 299 299 298 297 298 302 308 314
40 18 2 348 335 337 340 326 321 317 315 315 317 319 320 320 320 317 315 314 312 309 307 303 300 299 298 298 295 292 290 291 291 291 292 293 293 295 297 301 307 315 320
35 15 357 342 332 328 324 320 319 319 320 318 318 318 318 318 316 314 313 311 309 307 304 303 299 297 299 302 300 296 289 287 288 286 286 289 296 302 306 311 315 321 325
24 2 346 333 326 321 319 317 318 318 317 316 315 316 316 315 312 311 310 308 307 305 305 306 302 301 302 304 302 300 299 304 308 311 311 312 310 310 313 320 329 337 348
5 345 330 319 312 309 312 314 313 312 312 310 310 311 311 310 309 308 308 308 310 310 308 308 304 305 305 305 302 305 311 317 327 338 338 316 316 321 330 339 353 4 8
Height
1447 1454 1459 1464 1469 1473 1476 1478 1480 1481 1482 1482 1481 1480 1479 1478 1475 1473 1471 1468 1465 1461 1457 1453 1449 1446 1442 1438 1434 1430 1425 1419 1407 1392 1389 1384 1379 1375 1370 1366 1362 1357 1351
1447 1453 1458 1463 1468 1471 1474 1476 1478 1479 1479 1479 1478 1477 1476 1474 1472 1469 1466 1463 1459 1455 1451 1447 1443 1439 1435 1431 1427 1422 1417 1412 1404 1391 1381 1376 1371 1366 1361 1356 1352 1347 1341
1447 1452 1457 1462 1466 1470 1473 1474 1476 1476 1476 1476 1475 1474 1473 1471 1468 1465 1461 1458 1454 1449 1445 1441 1437 1432 1427 1423 1418 1413 1409 1404 1398 1389 1378 1371 1364 1359 1353 1346 1341 1335 1329
1446 1452 1457 1461 1465 1468 1471 1472 1473 1474 1474 1473 1472 1471 1469 1466 1463 1460 1456 1452 1448 1444 1439 1435 1431 1426 1421 1416 1411 1407 1402 1396 1389 1382 1373 1365 1358 1352 1346 1338 1329 1323 1317
1446 1452 1456 1460 1464 1467 1469 1470 1471 1471 1471 1470 1469 1467 1465 1462 1458 1454 1450 1446 1442 1437 1433 1429 1425 1420 1416 1411 1407 1401 1395 1388 1382 1375 1367 1359 1352 1345 1338 1331 1322 1313 1306
1446 1451 1456 1459 1462 1465 1467 1468 1468 1468 1468 1467 1465 1463 1460 1457 1453 1449 1445 1440 1436 1432 1427 1423 1418 1414 1409 1405 1400 1394 1390 1384 1376 1369 1361 1354 1345 1339 1332 1325 1317 1307 1295
1446 1451 1455 1458 1461 1463 1465 1466 1466 1466 1465 1464 1461 1459 1456 1452 1448 1444 1440 1436 1431 1426 1422 1417 1412 1407 1403 1396 1390 1386 1382 1377 1372 1365 1355 1347 1340 1334 1327 1318 1311 1303 1293
1446 1450 1454 1457 1459 1461 1463 1463 1464 1463 1462 1460 1457 1454 1451 1447 1443 1439 1434 1430 1425 1421 1417 1412 1406 1400 1395 1390 1384 1378 1372 1367 1362 1355 1349 1342 1335 1328 1322 1314 1305 1295 1286
1446 1450 1453 1456 1458 1460 1461 1462 1461 1461 1459 1456 1453 1449 1446 1442 1438 1433 1429 1424 1419 1415 1411 1406 1401 1395 1389 1384 1378 1371 1363 1357 1352 1347 1342 1336 1328 1322 1315 1308 1299 1290 1278
1446 1449 1453 1455 1457 1459 1459 1460 1459 1457 1455 1452 1449 1445 1441 1437 1432 1428 1424 1418 1413 1409 1404 1400 1395 1389 1384 1378 1372 1364 1356 1350 1344 1338 1332 1326 1320 1314 1309 1303 1295 1286 1276
1446 1449 1452 1455 1456 1457 1458 1457 1456 1454 1451 1448 1445 1442 1438 1433 1428 1423 1419 1415 1409 1404 1399 1393 1388 1383 1378 1372 1366 1359 1352 1347 1339 1332 1325 1319 1313 1307 1302 1296 1290 1282 1273
1446 1449 1452 1454 1455 1456 1456 1454 1452 1450 1447 1444 1440 1437 1433 1428 1423 1418 1414 1411 1406 1400 1393 1387 1382 1377 1371 1365 1359 1353 1348 1342 1334 1327 1320 1314 1307 1301 1295 1289 1283 1276 1269
1447 1450 1452 1453 1454 1454 1453 1451 1449 1446 1443 1439 1435 1430 1426 1423 1418 1414 1409 1405 1400 1395 1388 1383 1377 1371 1365 1359 1353 1348 1343 1336 1329 1323 1317 1310 1304 1297 1290 1283 1276 1269 1262
1448 1450 1451 1452 1452 1452 1450 1448 1446 1443 1439 1434 1430 1425 1421 1417 1413 1408 1404 1399 1394 1388 1382 1376 1371 1366 1360 1355 1349 1344 1338 1333 1327 1321 1313 1306 1300 1293 1286 1279 1270 1263 1254
1448 1449 1450 1451 1450 1449 1448 1446 1442 1439 1435 1431 1426 1422 1417 1412 1408 1405 1401 1395 1390 1384 1378 1371 1366 1360 1354 1349 1344 1339 1334 1329 1323 1317 1310 1303 1296 1289 1282 1276 1268 1261 1254
1448 1449 1449 1449 1448 1447 1445 1443 1439 1436 1432 1428 1424 1420 1414 1410 1405 1400 1396 1391 1385 1380 1374 1368 1362 1357 1352 1346 1341 1335 1330 1325 1319 1313 1307 1300 1293 1286 1279 1273 1267 1260 1253
1448 1448 1448 1447 1446 1444 1441 1438 1435 1432 1429 1425 1420 1415 1410 1405 1400 1395 1391 1386 1381 1375 1370 1365 1360 1354 1349 1344 1338 1333 1327 1321 1316 1310 1304 1297 1291 1284 1277 1271 1265 1258 1252
1447 1447 1447 1445 1443 1441 1438 1434 1430 1426 1422 1419 1415 1411 1406 1401 1396 1391 1386 1380 1375 1371 1367 1362 1357 1352 1346 1341 1336 1330 1324 1318 1312 1307 1301 1295 1288 1282 1275 1270 1264 1258 1252
1446 1446 1445 1443 1440 1438 1434 1431 1427 1423 1418 1413 1409 1405 1401 1395 1391 1387 1382 1377 1371 1367 1363 1358 1354 1349 1343 1338 1333 1327 1321 1315 1309 1303 1298 1292 1286 1280 1274 1268 1263 1258 1252
1445 1444 1442 1440 1438 1435 1431 1428 1424 1419 1415 1410 1405 1400 1394 1390 1386 1382 1378 1373 1368 1364 1359 1355 1350 1346 1341 1335 1329 1323 1318 1312 1306 1300 1295 1289 1283 1278 1272 1267 1262 1257 1252
1444 1442 1440 1438 1435 1432 1428 1424 1420 1416 1411 1406 1402 1397 1392 1387 1382 1378 1373 1369 1365 1360 1356 1351 1347 1342 1337 1332 1326 1320 1315 1309 1303 1298 1292 1286 1281 1276 1271 1266 1261 1257 1253
1442 1440 1438 1435 1432 1428 1425 1421 1417 1412 1408 1403 1397 1393 1389 1384 1379 1375 1370 1366 1362 1358 1354 1349 1344 1339 1334 1328 1323 1317 1311 1306 1300 1295 1289 1284 1279 1274 1269 1265 1261 1257 1253
1440 1438 1435 1432 1429 1426 1422 1418 1413 1409 1404 1399 1394 1389 1385 1380 1376 1372 1367 1363 1359 1355 1351 1346 1341 1336 1331 1326 1321 1315 1309 1303 1298 1292 1286 1281 1277 1273 1269 1264 1260 1257 1253
1438 1435 1432 1429 1426 1422 1418 1414 1410 1406 1401 1396 1391 1387 1382 1378 1373 1369 1365 1361 1357 1353 1348 1344 1339 1334 1329 1324 1318 1313 1308 1302 1296 1290 1286 1281 1277 1273 1269 1264 1261 1257 1254
1435 1433 1429 1426 1422 1419 1415 1411 1407 1403 1398 1393 1389 1384 1380 1375 1371 1367 1363 1359 1355 1350 1346 1342 1337 1332 1327 1321 1316 1311 1306 1300 1295 1291 1286 1281 1277 1272 1268 1265 1261 1258 1255
1433 1430 1427 1423 1420 1416 1412 1408 1404 1400 1395 1391 1387 1382 1378 1374 1369 1365 1361 1357 1353 1348 1344 1339 1335 1330 1325 1320 1315 1309 1304 1299 1294 1289 1285 1281 1277 1273 1269 1266 1263 1260 1258